Location: *
(51.9961°N, 11.9203°E)
Time: 14:53:36
(UTC+00:00)

Daily predictions for brighter satellites

Satellite Brightness Start Highest point End
(mag) Time Altitude Azimuth Time Altitude Azimuth Time Altitude Azimuth
Meteor 2-8 Rocket 4.5 17:46:24 10° S 17:52:28 83° E 17:58:36 10° NNE
COSMO-SKYMED 1 3.1 17:50:21 10° N 17:54:41 65° WNW 17:58:59 10° SSW
ARGOS 4.1 17:51:39 10° ESE 17:56:12 29° ENE 18:00:48 10° N
Cosmos 2251 Rocket 3.8 17:54:42 10° NNW 18:00:07 79° WSW 18:05:29 10° SSE
Cosmos 2151 Rocket 3.6 17:56:05 10° S 18:00:27 65° E 18:04:49 10° NNE
H-2A R/B 2.9 17:56:31 10° ESE 18:00:48 30° ENE 18:05:10 10° N
Cosmos 2074 Rocket 4.0 17:55:36 10° N 18:01:54 84° E 18:08:08 10° S
Cosmos 1300 Rocket 3.5 17:59:31 10° S 18:03:48 71° E 18:08:08 10° NNE
Cosmos 2333 Rocket 2.2 18:01:08 10° NNW 18:06:52 84° ENE 18:12:36 10° SSE
Cosmos 1461 3.5 18:05:29 10° S 18:09:04 32° ESE 18:12:37 10° ENE
ASTEX 1 3.9 18:05:40 10° NNE 18:10:14 38° E 18:14:46 10° SSE
Cosmos 1544 3.6 18:07:28 10° SSE 18:10:47 36° E 18:14:09 10° NNE
SAR-Lupe-2 4.1 18:08:45 10° NNE 18:12:07 36° E 18:15:26 10° SSE
CZ-4 R/B 3.8 18:09:49 10° SSW 18:13:08 26° W 18:16:30 10° NW
GEOS 3 Rocket 4.3 18:11:22 10° SSE 18:16:21 52° SW 18:21:22 10° NW
COSMOS 2455 3.7 18:11:09 10° NW 18:17:01 52° WSW 18:22:48 10° SSE
CZ-4C R/B 3.7 18:13:17 10° W 18:18:31 37° NNW 18:24:43 10° NE
Cosmos 2237 Rocket 2.6 18:13:56 10° NNW 18:19:29 50° NE 18:24:48 11° SE
Cosmos 2154 Rocket 4.0 18:17:05 10° N 18:23:20 75° ENE 18:29:31 10° SSE
FREGAT/IRIS 2.3 18:21:06 10° SSE 18:23:55 87° ENE 18:26:44 10° NNW
Cosmos 1441 Rocket 3.3 18:21:28 10° S 18:25:10 50° E 18:28:51 10° NNE
Cosmos 1980 3.8 18:22:48 10° NNW 18:28:26 59° NE 18:33:33 12° SE
ERBS 3.3 18:25:43 10° WNW 18:28:56 37° N 18:31:32 14° ENE
Cosmos 389 Rocket 2.9 18:27:16 10° N 18:30:32 39° ENE 18:33:05 15° SE
SL-8 R/B 4.2 18:33:13 10° SW 18:37:44 42° SSE 18:40:55 18° E
Cosmos 1674 4.1 18:35:49 10° NNE 18:38:40 20° ENE 18:39:41 18° E
SL-8 Rocket 4.3 18:33:44 10° N 18:39:44 47° ENE 18:45:17 12° SE
Aureole 1 Rocket 4.3 18:34:42 10° NNW 18:40:13 49° WSW 18:44:23 10° S
SJ-6B 2.9 18:38:42 10° SSE 18:42:49 84° ENE 18:46:57 10° NNW
Resurs 1-3 4.0 18:39:28 15° SE 18:42:52 45° ENE 18:47:05 10° N
CZ-2C R/B 3.6 18:39:02 15° SE 18:43:01 42° ENE 18:48:11 10° N
Cosmos 1707 2.7 18:39:40 10° N 18:43:37 83° E 18:47:32 10° SSE
Resurs 01 Rocket 2.2 18:42:02 18° SE 18:44:53 38° ENE 18:49:02 10° N
Ariane Rocket 4.3 18:40:11 10° S 18:44:59 42° W 18:49:49 10° NNW
Okean 1 Rocket 2.9 18:41:20 10° S 18:45:40 82° E 18:50:04 10° NNE
Meteor 1-4 Rocket 2.9 18:42:28 10° N 18:45:57 44° ENE 18:47:52 22° SE
SL-16 R/B 3.0 18:43:14 10° NNW 18:48:31 38° NE 18:51:53 20° ESE
GP-B 3.9 18:45:11 10° N 18:49:32 54° W 18:53:51 10° SSW
Cosmos 2056 Rocket 4.2 18:46:51 10° SSE 18:51:35 32° ESE 18:56:19 10° NE
NOSS 3-4 (A) 4.0 18:45:24 10° NW 18:52:17 74° SW 18:59:03 13° SSE
NOSS 3-4 (C) 4.0 18:45:30 10° NW 18:52:23 75° SW 18:59:07 14° SSE
USA 186 2.3 18:49:16 10° S 18:52:36 63° WSW 18:56:03 10° NNW
Meteor 2-17 Rocket 4.4 18:47:40 10° N 18:53:44 64° ENE 18:59:28 11° SSE
Cosmos 407 Rocket 3.4 18:49:09 10° NNW 18:54:20 79° ENE 18:58:21 17° SSE
COSMOS 2428 3.7 18:52:12 10° NW 18:57:37 46° WSW 19:02:59 10° S
Cosmos 2219 Rocket 3.1 18:52:38 10° NW 18:57:58 46° WSW 19:03:16 10° S
Cosmos 614 Rocket 3.9 18:52:49 10° NNW 18:58:05 80° ENE 19:02:02 18° SSE
Cosmos 1624 Rocket 4.4 18:59:04 10° S 19:03:51 39° ESE 19:08:39 10° NE
NOSS 3-3 (A) 4.2 18:57:49 10° SW 19:03:55 77° NW 19:10:52 10° NE
NOSS 3-3 (C) 4.2 18:57:55 10° SW 19:04:02 78° NW 19:10:58 10° NE
SPOT 3 Rocket 3.9 19:03:25 10° S 19:08:31 64° WSW 19:13:39 10° NNW
Cosmos 1766 4.3 19:09:36 27° ENE 19:09:36 27° ENE 19:12:29 10° NNE
CZ-2C R/B 3.8 19:09:53 10° NE 19:14:19 24° E 19:14:19 24° E
Nadezhda 1 Rocket 4.5 19:08:22 10° SSW 19:14:22 62° WNW 19:20:25 10° N
Cosmos 1954 Rocket 4.0 19:09:51 10° NNW 19:15:05 63° ENE 19:17:32 31° SE
USA 234 3.7 19:10:20 13° ENE 19:16:04 58° N 19:22:28 10° WNW
Meteor 1-15 Rocket 4.2 19:11:18 10° S 19:17:03 76° E 19:22:57 10° NNE
Cosmos 1892 Rocket 3.6 19:13:00 10° NNW 19:17:29 81° W 19:20:44 18° S
Timation 2 Rocket 4.5 19:11:33 10° SW 19:18:03 65° NW 19:24:20 10° NNE
Okean 1-7 Rocket 3.7 19:14:50 10° NNW 19:19:16 76° W 19:22:38 17° S
ERS-1 Rocket 4.0 19:20:29 25° E 19:21:33 28° ENE 19:25:46 10° N
Spot 2 Rocket 3.7 19:20:07 33° SE 19:22:09 54° ENE 19:27:04 10° N
Terra 3.6 19:23:12 17° ENE 19:23:43 17° NE 19:26:45 10° NNE
Cosmos 2219 3.1 19:18:33 10° SSW 19:24:14 65° ESE 19:29:56 10° NE
Cosmos 1140 Rocket 3.4 19:19:12 10° NNW 19:24:26 89° WSW 19:27:07 29° SSE
ADEOS Rocket 3.4 19:18:08 10° NNE 19:25:19 74° ESE 19:33:02 10° S
Cosmos 2227 Rocket 2.5 19:20:24 10° S 19:25:40 42° ESE 19:31:00 10° NE
Cosmos 1437 Rocket 2.5 19:27:41 10° N 19:31:32 73° ENE 19:32:05 60° SE
Cosmos 1371 Rocket 3.9 19:28:55 10° SSW 19:34:13 75° ESE 19:39:36 10° NNE
RESURS DK-1 3.4 19:31:31 10° NNW 19:35:16 32° NE 19:35:39 31° ENE
ATLAS 2AS CENTAUR R/B 4.1 19:28:39 10° NW 19:35:27 35° WSW 19:41:45 10° S
MetOp-B 4.1 19:33:44 38° SE 19:35:44 64° ENE 19:41:03 10° N
ARGOS 3.7 19:31:11 11° S 19:36:12 56° W 19:41:31 10° NNW
Cosmos 2297 Rocket 2.3 19:31:15 10° S 19:36:43 52° ESE 19:42:13 10° NE
H-2A R/B 2.8 19:35:31 11° S 19:40:04 47° W 19:44:56 10° NNW
Cosmos 405 Rocket 2.7 19:40:22 29° SSW 19:42:08 73° WNW 19:45:52 10° N
Cosmos 1626 3.7 19:39:17 10° N 19:41:29 24° NE 19:41:29 24° NE
Meteor 1-24 Rocket 3.7 19:40:16 10° NNW 19:46:00 86° ENE 19:48:37 35° SSE
Cosmos 676 Rocket 4.1 19:40:43 10° NNW 19:46:00 75° WSW 19:48:04 38° S
Cosmos 1461 4.0 19:44:15 10° WSW 19:48:04 42° NW 19:51:52 10° NNE
SL-08 R/B 4.5 19:42:07 10° N 19:48:40 81° E 19:51:45 34° SSE
Cosmos 2333 Rocket 4.5 19:46:26 10° NW 19:50:28 20° W 19:54:28 10° SW
Cosmos 2181 Rocket 4.1 19:46:29 10° SSW 19:52:43 76° W 19:59:07 10° N
Cosmos 1943 4.3 19:47:59 10° NNW 19:53:01 31° NE 19:54:24 27° ENE
Meteor 2-5 Rocket 4.3 19:54:23 10° NNW 20:00:04 58° W 20:03:38 23° SSW
Cosmos 1544 Rocket 3.7 20:00:48 39° SSW 20:02:23 74° W 20:06:53 10° N
Cosmos 1455 Rocket 3.5 20:00:39 23° SSW 20:03:17 60° WNW 20:07:43 10° N
Cosmos 2237 Rocket 3.4 19:58:16 10° NW 20:03:26 37° WSW 20:06:39 20° SSW
USA 245 4.4 20:02:03 46° SSE 20:04:02 80° ENE 20:09:53 10° NNW
Cosmos 1805 3.4 20:04:51 67° N 20:04:51 67° N 20:08:18 10° N
ERBS 3.4 20:02:09 10° WNW 20:04:33 43° WNW 20:04:33 43° WNW
Nadezhda 3 Rocket 4.1 20:06:21 50° ESE 20:06:51 52° E 20:12:50 10° NNE
CARTOSAT-1 4.5 20:08:50 37° NE 20:08:50 37° NE 20:12:08 10° N
CZ-4C R/B 4.0 20:03:16 10° NW 20:08:46 31° N 20:14:29 12° ENE
Cosmos 1674 3.7 20:10:54 10° NNW 20:14:24 39° W 20:14:32 39° W
Cosmos 1850 Rocket 3.8 20:12:46 10° NNW 20:18:00 86° ENE 20:18:18 80° SE
Cosmos 1626 Rocket 4.0 20:15:24 10° NNW 20:19:38 53° W 20:19:57 51° WSW
SL-8 R/B 4.3 20:15:11 10° W 20:18:53 47° SW 20:18:53 47° SW
SPOT 5 3.1 20:21:03 57° NE 20:21:03 57° NE 20:25:33 10° N
Resurs 01 Rocket 3.3 20:19:38 22° SW 20:21:28 30° W 20:25:24 10° NNW
Meteor 1-22 Rocket 4.4 20:19:02 32° SSW 20:22:03 82° WNW 20:28:14 10° NNE
CZ-2C R/B 4.4 20:20:05 21° SSW 20:22:58 37° W 20:28:02 10° NNW
Cosmos 1821 Rocket 3.8 20:17:03 10° N 20:23:17 80° ENE 20:24:15 64° SSE
Cosmos 1825 Rocket 4.3 20:22:06 10° N 20:25:15 44° NNE 20:25:15 44° NNE
Cosmos 1603 3.9 20:22:14 10° NNW 20:27:50 58° NE 20:28:05 57° ENE
Landsat 7 3.8 20:29:41 79° NNW 20:29:41 79° NNW 20:34:11 10° NNW
SL-14 R/B 4.2 20:27:24 10° NNW 20:30:22 47° NNW 20:30:22 47° NNW
DMSP B5D2-2 4.4 20:26:18 10° N 20:31:33 63° WNW 20:33:46 34° SW
SL-16 R/B 2.7 20:27:21 10° NW 20:32:52 52° WSW 20:33:47 47° SW
Cosmos 2056 Rocket 4.4 20:28:16 10° SW 20:33:32 51° WNW 20:38:49 10° NNE
Cosmos 1758 Rocket 4.3 20:30:43 10° N 20:33:52 47° N 20:33:52 47° N
SPOT 1/Viking Rocket 3.5 20:38:50 79° WSW 20:38:50 79° WSW 20:44:02 10° NNW
Cosmos 1420 Rocket 4.0 20:41:55 80° NNW 20:41:55 80° NNW 20:47:07 10° NNE
Cosmos 1741 Rocket 4.3 20:40:58 10° NNW 20:46:11 62° WSW 20:46:11 62° WSW
Cosmos 2082 3.7 20:50:21 72° WSW 20:50:51 79° WNW 20:56:37 10° NNE
CZ-2C R/B 3.0 20:49:35 10° N 20:55:05 67° WNW 20:55:49 60° WSW
USA 234 3.3 20:57:40 61° ENE 20:58:47 74° NNE 21:05:20 10° WNW
ERS-1 Rocket 3.5 21:00:29 53° W 21:00:29 53° W 21:05:02 10° NNW
Terra 2.5 21:02:05 51° NNW 21:02:05 51° NNW 21:05:38 10° NNW
Thor Agena Rocket 4.4 21:03:19 10° NNE 21:06:54 44° NNE 21:06:54 44° NNE
Cosmos 2227 Rocket 3.2 21:04:21 10° WSW 21:09:45 44° NW 21:15:12 10° NNE
RESURS DK-1 4.4 21:09:31 10° NW 21:11:33 25° WNW 21:11:33 25° WNW
Cosmos 2297 Rocket 3.5 21:15:46 10° WSW 21:21:00 37° NW 21:26:16 10° NNE
Cosmos 1452 Rocket 4.4 21:28:21 45° NW 21:28:21 45° NW 21:33:17 10° NNE
Cosmos 1934 Rocket 4.4 21:23:47 10° NNW 21:29:34 55° W 21:29:34 55° W
Cosmos 1943 3.9 21:31:53 10° NW 21:36:12 51° NW 21:36:12 51° NW
Cosmos 2263 Rocket 4.0 21:41:34 22° NE 21:41:34 22° NE 21:43:37 10° NE
Mayak 1.5 21:36:41 10° NNE 21:37:06 12° NNE 21:37:06 12° NNE
Cosmos 2285 Rocket 4.3 21:40:22 10° NNW 21:45:53 65° N 21:45:53 65° N
CZ-4C R/B 3.3 21:52:15 10° NW 21:58:45 51° NNE 21:59:37 49° NE
USA 234 4.4 22:45:02 31° WNW 22:45:02 31° WNW 22:48:26 10° WNW
Cosmos 2082 Rocket 3.9 22:44:32 10° NNW 22:49:20 26° NE 22:49:42 26° NE
SJ 16-02 4.2 22:59:56 10° NNE 23:01:36 13° NE 23:01:36 13° NE
COSMOS 2406 4.5 23:00:01 10° NNW 23:03:37 38° NNW 23:03:37 38° NNW
Mayak 1.7 23:12:50 10° N 23:13:40 14° NNW 23:13:40 14° NNW
ATLAS CENTAUR R/B 4.0 23:22:56 22° NNE 23:22:56 22° NNE 23:24:53 10° NE
Cosmos 2263 Rocket 3.6 23:23:14 34° NNW 23:23:14 34° NNW 23:27:31 10° NNE
Cosmos 1833 Rocket 4.0 23:28:17 10° NNW 23:31:51 37° N 23:31:51 37° N
Cosmos 2278 Rocket 4.1 23:37:30 22° ENE 23:37:30 22° ENE 23:39:59 10° NE
Resurs 1-4 Rocket 4.4 23:35:53 10° NE 23:38:02 15° ENE 23:38:02 15° ENE
CZ-4C R/B 3.7 23:40:46 10° NW 23:44:45 38° WNW 23:44:45 38° WNW
USA 267 3.5 23:42:19 10° ENE 23:47:58 64° NNE 23:47:58 64° NNE
SL-16 R/B 3.4 23:50:33 43° ENE 23:50:36 43° ENE 23:56:27 10° N
